User: anonymous   Login
Location: Houston
(29.7630°N, 95.3630°W)
Time: 16:17:25
(UTC-06:00)
Language:

ISS - Orbit

View from above orbital plane
View from above orbital plane
View from above satellite
View from above satellite

Ground track
Ground track

The orbit data is extracted from the following two-line orbital elements,

1 25544U 98067A   15025.58332152  .00011705  00000-0  18708-3 0  7788
2 25544 051.6482 076.0463 0005510 302.6456 214.1394 15.53625812925841
Epoch (UTC): 25 January 2015 13:59:58
Eccentricity: 0.0005510
inclination: 51.6482°
perigee height: 402 km
apogee height: 410 km
right ascension of ascending node: 76.0463°
argument of perigee: 302.6456°
revolutions per day: 15.53625812
mean anomaly at epoch: 214.1394°
orbit number at epoch: 92584

The dashed part of the orbit path shows where the satellite is in the earth's shadow,  

DLR